Location: Bishausen
(51.6334°N, 9.9631°E)
Time: 14:36:13
(UTC+00:00)

GP-B - Pass Details

Date: 23 May 2024
Orbit: 624 x 629 km, 89.8° (Epoch: 13 June)

Event Time Altitude Azimuth Distance (km) Brightness Sun altitude
Rises 00:26:48 0° 352° (N) 2,925 7.8 -16.1°
Reaches altitude 10° 00:29:15 10° 341° (NNW) 2,012 6.5 -16.0°
Maximum altitude 00:33:00 28° 283° (WNW) 1,186 4.4 -15.8°
Enters shadow 00:35:05 19° 241° (WSW) 1,489 4.6 -15.7°
